Cushing, OK

4:43 AM CDT on August 25, 2016 (GMT -0500)
Cushing Municipal

Weather History for KCUH - February, 2014

Change the Weather History Date:

Monday, February 17, 2014

  Actual Average Record
Temperature  
Mean Temperature 50 °F -  
Max Temperature 68 °F 48 °F 77 °F (2011)
Min Temperature 32 °F 28 °F 5 °F (1979)
Degree Days  
Heating Degree Days 15    
Moisture  
Dew Point 38 °F    
Average Humidity 63    
Maximum Humidity 100    
Minimum Humidity 30    
Precipitation  
Precipitation 0.00 in - - ()
Sea Level Pressure  
Sea Level Pressure 30.01 in    
Wind  
Wind Speed 9 mph (NW)    
Max Wind Speed 22 mph    
Max Gust Speed 32 mph    
Visibility 10 miles    
Events      
Averages and records for this station are not official NWS values.
T = Trace of Precipitation, MM = Missing Value Source: NWS Daily Summary

Daily Weather History Graph

Daily Weather History Graph

Search for Another Location

Airport or City:

Trip Planner

Search our weather history database for the weather conditions in past years. The results will help you decide how hot, cold, wet, or windy it might be!

Date:

Astronomy

Feb. 17, 2014 Rise Set
Actual Time 7:11 AM CST 6:10 PM CST
Civil Twilight 6:45 AM CST 6:36 PM CST
Nautical Twilight 6:15 AM CST 7:06 PM CST
Astronomical Twilight 5:46 AM CST 7:36 PM CST
Moon 8:59 PM CST (2/17) 8:19 AM CST (2/17)
Length of Visible Light 11h 50m
Length of Day
10h 58m
Waning Gibbous, 93% of the Moon is Illuminated
Feb 17
Waning Gibbous
Feb 22
Last Quarter
Mar 1
New
Mar 8
First Quarter
Mar 16
Full

Hourly Weather History & Observations

Time (CST) Temp. Windchill Dew Point Humidity Pressure Visibility Wind Dir Wind Speed Gust Speed Precip Events Conditions
12:15 AM 55.4 °F - 53.6 °F 94% 29.78 in 10.0 mi SSE 6.9 mph - N/A   Clear
12:35 AM 55.4 °F - 53.6 °F 94% 29.76 in 10.0 mi SSE 8.1 mph - N/A   Clear
12:55 AM 55.4 °F - 53.6 °F 94% 29.75 in 10.0 mi SSE 8.1 mph - N/A   Scattered Clouds
1:15 AM 55.4 °F - 53.6 °F 94% 29.75 in 10.0 mi SSE 6.9 mph - N/A   Scattered Clouds
1:35 AM 55.4 °F - 53.6 °F 94% 29.74 in 10.0 mi SSE 6.9 mph - N/A   Scattered Clouds
1:55 AM 55.4 °F - 53.6 °F 94% 29.75 in 10.0 mi South 6.9 mph - N/A   Scattered Clouds
2:15 AM 53.6 °F - 53.6 °F 100% 29.74 in 10.0 mi South 3.5 mph - N/A   Scattered Clouds
2:35 AM 53.6 °F - 53.6 °F 100% 29.74 in 7.0 mi South 5.8 mph - N/A   Clear
2:55 AM 53.6 °F - 53.6 °F 100% 29.74 in 7.0 mi South 5.8 mph - N/A   Clear
3:15 AM 53.6 °F - 53.6 °F 100% 29.73 in 5.0 mi South 8.1 mph - N/A   Scattered Clouds
3:35 AM 55.4 °F - 55.4 °F 100% 29.74 in 7.0 mi SSW 6.9 mph - N/A   Scattered Clouds
3:55 AM 53.6 °F - 53.6 °F 100% 29.75 in 5.0 mi SSW 4.6 mph - N/A   Scattered Clouds
4:15 AM 53.6 °F - 53.6 °F 100% 29.78 in 5.0 mi WSW 4.6 mph - N/A   Clear
4:35 AM 53.6 °F - 53.6 °F 100% 29.78 in 5.0 mi WSW 6.9 mph - N/A   Clear
4:55 AM 53.6 °F - 53.6 °F 100% 29.81 in 7.0 mi West 15.0 mph 19.6 mph N/A   Clear
5:15 AM 53.6 °F - 51.8 °F 94% 29.84 in 10.0 mi WNW 17.3 mph 23.0 mph N/A   Clear
5:35 AM 53.6 °F - 48.2 °F 82% 29.87 in 10.0 mi NW 20.7 mph 27.6 mph N/A   Clear
5:55 AM 51.8 °F - 42.8 °F 71% 29.90 in 10.0 mi NNW 18.4 mph 27.6 mph N/A   Clear
6:15 AM 51.8 °F - 41.0 °F 67% 29.92 in 10.0 mi NW 19.6 mph 25.3 mph N/A   Clear
6:35 AM 50.0 °F - 41.0 °F 71% 29.93 in 10.0 mi NNW 16.1 mph 23.0 mph N/A   Clear
6:55 AM 50.0 °F - 39.2 °F 66% 29.96 in 10.0 mi NW 17.3 mph 24.2 mph N/A   Clear
7:15 AM 50.0 °F - 37.4 °F 62% 29.98 in 10.0 mi NW 11.5 mph 19.6 mph N/A   Clear
7:35 AM 50.0 °F - 37.4 °F 62% 30.00 in 10.0 mi NW 16.1 mph - N/A   Clear
7:55 AM 50.0 °F - 35.6 °F 58% 30.02 in 10.0 mi NW 19.6 mph 26.5 mph N/A   Clear
8:15 AM 51.8 °F - 35.6 °F 54% 30.03 in 10.0 mi NW 16.1 mph 27.6 mph N/A   Clear
8:35 AM 51.8 °F - 37.4 °F 58% 30.05 in 10.0 mi NNW 17.3 mph 25.3 mph N/A   Clear
8:55 AM 51.8 °F - 37.4 °F 58% 30.06 in 10.0 mi NNW 15.0 mph 28.8 mph N/A   Clear
9:15 AM 53.6 °F - 37.4 °F 54% 30.07 in 10.0 mi North 17.3 mph 27.6 mph N/A   Clear
9:35 AM 53.6 °F - 37.4 °F 54% 30.09 in 10.0 mi NNW 21.9 mph 27.6 mph N/A   Clear
9:55 AM 55.4 °F - 35.6 °F 47% 30.10 in 10.0 mi North 20.7 mph 32.2 mph N/A   Clear
10:15 AM 55.4 °F - 37.4 °F 51% 30.11 in 10.0 mi NNW 17.3 mph - N/A   Clear
10:35 AM 57.2 °F - 37.4 °F 48% 30.12 in 10.0 mi North 17.3 mph 24.2 mph N/A   Clear
10:55 AM 57.2 °F - 35.6 °F 44% 30.12 in 10.0 mi North 21.9 mph 28.8 mph N/A   Clear
11:15 AM 57.2 °F - 35.6 °F 44% 30.13 in 10.0 mi North 18.4 mph 27.6 mph N/A   Clear
11:35 AM 59.0 °F - 33.8 °F 39% 30.12 in 10.0 mi North 20.7 mph 28.8 mph N/A   Clear
11:55 AM 59.0 °F - 33.8 °F 39% 30.12 in 10.0 mi North 18.4 mph 26.5 mph N/A   Clear
12:15 PM 60.8 °F - 33.8 °F 36% 30.11 in 10.0 mi NNW 15.0 mph 24.2 mph N/A   Clear
12:35 PM 62.6 °F - 35.6 °F 37% 30.10 in 10.0 mi NNE 9.2 mph 18.4 mph N/A   Clear
12:55 PM 60.8 °F - 33.8 °F 36% 30.10 in 10.0 mi NNE 15.0 mph 19.6 mph N/A   Clear
1:15 PM 62.6 °F - 33.8 °F 34% 30.09 in 10.0 mi North 12.7 mph 20.7 mph N/A   Clear
1:35 PM 64.4 °F - 33.8 °F 32% 30.08 in 10.0 mi North 12.7 mph 16.1 mph N/A   Clear
1:55 PM 64.4 °F - 33.8 °F 32% 30.09 in 10.0 mi NNW 10.4 mph - N/A   Clear
2:15 PM 64.4 °F - 33.8 °F 32% 30.09 in 10.0 mi North 10.4 mph - N/A   Clear
2:35 PM 66.2 °F - 33.8 °F 30% 30.09 in 10.0 mi NNW 11.5 mph 16.1 mph N/A   Clear
2:55 PM 66.2 °F - 33.8 °F 30% 30.09 in 10.0 mi NNW 6.9 mph - N/A   Clear
3:15 PM 68.0 °F - 35.6 °F 30% 30.10 in 10.0 mi North 5.8 mph - N/A   Clear
3:35 PM 66.2 °F - 33.8 °F 30% 30.10 in 10.0 mi NNW 5.8 mph - N/A   Clear
3:55 PM 64.4 °F - 33.8 °F 32% 30.11 in 10.0 mi NNW 9.2 mph - N/A   Clear
4:15 PM 64.4 °F - 33.8 °F 32% 30.11 in 10.0 mi NW 9.2 mph - N/A   Clear
4:35 PM 64.4 °F - 33.8 °F 32% 30.12 in 10.0 mi WNW 8.1 mph - N/A   Clear
4:55 PM 62.6 °F - 33.8 °F 34% 30.12 in 10.0 mi NNW 6.9 mph - N/A   Clear
5:15 PM 62.6 °F - 33.8 °F 34% 30.13 in 10.0 mi NNW 5.8 mph - N/A   Clear
5:35 PM 60.8 °F - 33.8 °F 36% 30.13 in 10.0 mi WNW 4.6 mph - N/A   Clear
5:55 PM 59.0 °F - 32.0 °F 36% 30.13 in 10.0 mi Calm Calm - N/A   Clear
6:15 PM 55.4 °F - 32.0 °F 41% 30.13 in 10.0 mi Calm Calm - N/A   Clear
6:35 PM 50.0 °F - 32.0 °F 50% 30.13 in 10.0 mi Calm Calm - N/A   Clear
6:55 PM 44.6 °F 43.1 °F 28.4 °F 53% 30.12 in 10.0 mi South 3.5 mph - N/A   Clear
7:15 PM 41.0 °F - 26.6 °F 57% 30.12 in 10.0 mi Calm Calm - N/A   Clear
7:35 PM 41.0 °F - 28.4 °F 61% 30.12 in 10.0 mi Calm Calm - N/A   Clear
7:55 PM 39.2 °F - 28.4 °F 65% 30.13 in 10.0 mi Calm Calm - N/A   Clear
8:15 PM 35.6 °F - 26.6 °F 70% 30.13 in 10.0 mi Calm Calm - N/A   Clear
8:35 PM 35.6 °F - 28.4 °F 75% 30.13 in 10.0 mi Calm Calm - N/A   Clear
8:55 PM 33.8 °F - 26.6 °F 75% 30.13 in 10.0 mi Calm Calm - N/A   Clear
9:15 PM 33.8 °F - 26.6 °F 75% 30.12 in 10.0 mi Calm Calm - N/A   Clear
9:35 PM 32.0 °F - 26.6 °F 80% 30.12 in 10.0 mi Calm Calm - N/A   Clear
9:55 PM 32.0 °F - 26.6 °F 80% 30.13 in 10.0 mi Calm Calm - N/A   Clear
10:15 PM 33.8 °F - 28.4 °F 81% 30.12 in 10.0 mi Calm Calm - N/A   Clear
10:35 PM 32.0 °F - 26.6 °F 80% 30.12 in 10.0 mi Calm Calm - N/A   Clear
10:55 PM 33.8 °F - 28.4 °F 81% 30.11 in 10.0 mi Calm Calm - N/A   Clear
11:15 PM 33.8 °F - 28.4 °F 81% 30.10 in 10.0 mi Calm Calm - N/A   Clear
11:35 PM 33.8 °F - 26.6 °F 75% 30.09 in 10.0 mi Calm Calm - N/A   Clear
11:55 PM 33.8 °F - 28.4 °F 81% 30.09 in 10.0 mi Calm Calm - N/A   Clear